Location: Villingen
(48.0639°N, 8.4609°E)
Time: 16:49:43
(UTC+02:00)

ISS - Visible Passes

Search period start: 25 May 2018 00:00
Search period end: 04 June 2018 00:00
Orbit: 402 x 407 km, 51.6° (Epoch: 26 May)

Date Brightness Start Highest point End Pass type
(mag) Time Alt. Az. Time Alt. Az. Time Alt. Az.
25 May -2.6 00:29:27 10° WNW 00:32:36 43° N 00:35:41 10° ENE visible
25 May -3.0 02:06:01 10° WNW 02:08:16 41° WNW 02:08:16 41° WNW visible
25 May -3.8 22:00:19 10° WSW 22:03:35 84° NNW 22:06:53 10° ENE visible
25 May -2.6 23:37:11 10° WNW 23:40:19 42° N 23:43:28 10° ENE visible
26 May -3.5 01:13:51 10° WNW 01:17:06 65° NNE 01:17:15 64° NE visible
26 May -2.7 22:44:51 10° W 22:48:02 46° N 22:51:13 10° ENE visible
27 May -3.0 00:21:39 10° WNW 00:24:52 51° NNE 00:26:27 25° ENE visible
27 May -1.6 01:58:12 10° WNW 01:59:04 17° WNW 01:59:04 17° WNW visible
27 May -3.0 21:52:32 10° W 21:55:45 55° NNW 21:58:59 10° ENE visible
27 May -2.7 23:29:25 10° WNW 23:32:34 44° N 23:35:44 10° E visible
28 May -3.1 01:05:57 10° WNW 01:08:22 45° WNW 01:08:22 45° WNW visible
28 May -2.6 22:37:07 10° WNW 22:40:16 42° N 22:43:24 10° ENE visible
29 May -3.7 00:13:45 10° WNW 00:17:01 73° NNE 00:17:44 50° E visible
29 May -3.2 23:21:31 10° WNW 23:24:45 55° NNE 23:27:08 17° E visible
30 May -2.2 00:58:05 10° WNW 00:59:46 25° W 00:59:46 25° W visible
30 May -2.8 22:29:15 10° WNW 22:32:26 46° N 22:35:37 10° E visible
31 May -3.9 00:05:47 10° WNW 00:09:03 66° SSW 00:09:11 65° S visible
31 May -3.8 23:13:31 10° WNW 23:16:49 83° NNE 23:18:38 24° ESE visible
01 Jun -1.4 00:50:27 10° W 00:51:16 14° W 00:51:16 14° W visible
01 Jun -3.4 22:21:16 10° WNW 22:24:31 60° NNE 22:27:46 10° E visible
01 Jun -2.9 23:57:53 10° WNW 00:00:44 34° SW 00:00:44 34° SW visible
02 Jun -3.7 23:05:30 10° WNW 23:08:44 56° SSW 23:10:14 27° SE visible
03 Jun -3.8 22:13:11 10° WNW 22:16:29 87° SSW 22:19:44 10° ESE visible
03 Jun -1.9 23:50:17 10° W 23:52:23 18° SW 23:52:23 18° SW visible
